Showing default

FLOCK 4BE 33, 60502

Orbit data source: Space-Track

FLOCK 4BE 33, 60502 is a payload satellite owned by Planet (US) in SSO that was launched on Fri, 16 Aug 2024 UTC via an FALCON 9 launch vehicle from the Air Force Western Test Range (AFWTR). Payload-class satellites include a variety of spacecraft equipped with specific instruments for various scientific and technological missions. These include communications satellites like Starlink; space stations such as the ISS; scientific satellites like the Hubble; Earth observation satellites from companies like Planet Labs, Umbra, and HawkEye 360; GPS; miniature CubeSats for education and research; and military/defense satellites.

Loading next visibility...
Identifier
60502, 2024-149AL
Orbit
SSO
Country
Flag of USUS
Related business
Manufacturer
Planet
Mission
Operational Commercial Imaging
Bus & Motor
CUBESAT 3U, Unknown motor
Mass
5.7 kg wet, 5.7 kg dry
Launch date (UTC)
2024-08-16 (1 year ago)
Launch vehicle
FALCON 9
Launch site
Air Force Western Test Range (AFWTR)
Object type
Payload
Rocket body
Debris
Shape & HBR
Box + 2 Pan, 1.0 m
Radar Cross Section
0.072 m², Medium (>0.1 m² and < 1m²)

Expand to show TLE details & history
Last TLE update: 1 day ago

TLE from 1 day ago
0 FLOCK 4BE 33
1 60502U 24149AL  25287.17997034  .00018001  00000-0  61472-3 0  9990
2 60502  97.3957   4.4783 0005929  90.9929 269.1991 15.30349896 64504
Epoch: 2025-10-14T04:19Z
TLE epoch observation values (Epoch: 2025-10-14T04:19:09.437Z)
Latitude
-0.00003°
Longitude
-83.28312°
Altitude
477.931 km
Speed
7.627 km/s
True Right ascension
00h 17m 54s
True Declination
0° 00' 00"
Sunlit
Object was in full shadow at epoch
Visualization orbit readout
Latitude
Unknown
Longitude
Unknown
Altitude
Unknown
Speed
Unknown
Apparent Right ascension
Unknown
Apparent Declination
Unknown
Sunlit
N/A
Visualization observer readout
Local Sidereal Time
10:31:05
Azimuth
Unknown
Elevation
Unknown
Doppler factor
Unknown
Orbital elements
Apogee altitude
475.78 km
Perigee altitude
467.658 km
Semi-major axis
6,849.856 km
Eccentricity
0.00059
Inclination
97.3957°
RAAN
4.4783°
Arg. of periapsis
90.9929°
True anomaly
269.13117°
Mean anomaly
269.1991°
Eccentric anomaly
269.16513°
Mean motion
3.82843 °/min
Orbital period
94.03 mins
BSTAR
0.00061472
Loading maneuver chart data...
Computing Atmospheric mass density...
Loading historical data...
Loading historical data...
Loading historical data...
Loading historical data...
Loading historical data...
Loading historical data...
Loading historical data...

Documentation

Showing up to 5 results
|